This is the latest recevied weather packets stored in our database for station/object N0MPM-4. If no packets are shown the sender has not sent any weather packets the latest 10 day(s).
| Time | Temp. | Humidity | Pressure | Rain* | Wind** | Luminosity | Snow |
|---|---|---|---|---|---|---|---|
| 1788026265 | 20° C | 70% | 1014 hPa | 0.25 mm | - | - | - |
| 1788025965 | 20° C | 66% | 1013.8 hPa | 0.51 mm | - | - | - |
| 1788025907 | 20° C | 67% | 1013.9 hPa | 0.51 mm | - | - | - |
| 1788025796 | 20° C | 63% | 1013.9 hPa | 0.76 mm | - | - | - |
| 1788025666 | 20° C | 64% | 1013.9 hPa | 0.76 mm | - | - | - |
| 1788025547 | 20° C | 63% | 1013.9 hPa | 0.76 mm | - | - | - |
| 1788025423 | 19.44° C | 61% | 1013.9 hPa | 0.76 mm | - | - | - |
| 1788025366 | 19.44° C | 61% | 1013.9 hPa | 0.76 mm | - | - | - |
| 1788025187 | 19.44° C | 61% | 1013.9 hPa | 0.76 mm | - | - | - |
| 1788025066 | 19.44° C | 60% | 1013.8 hPa | 1.02 mm | - | - | - |
| 1788024827 | 19.44° C | 53% | 1013.8 hPa | 1.02 mm | - | - | - |
| 1788024766 | 19.44° C | 55% | 1013.8 hPa | 1.02 mm | - | - | - |
| 1788024466 | 18.89° C | 57% | 1013.8 hPa | 1.27 mm | - | - | - |
| 1788024166 | 18.89° C | 57% | 1013.8 hPa | 1.27 mm | - | - | - |
| 1788024107 | 18.89° C | 57% | 1013.8 hPa | 1.27 mm | - | - | - |
| 1788023866 | 18.89° C | 54% | 1014 hPa | 1.52 mm | - | - | - |
| 1788023747 | 18.89° C | 50% | 1014.1 hPa | 1.52 mm | - | - | - |
| 1788023566 | 18.89° C | 48% | 1014.2 hPa | 1.78 mm | - | - | - |
| 1788023388 | 18.89° C | 47% | 1014.3 hPa | 1.78 mm | - | - | - |
| 1788023305 | 18.33° C | 45% | 1014.3 hPa | 1.78 mm | - | - | - |
| 1788023266 | 18.89° C | 45% | 1014.2 hPa | 2.03 mm | - | - | - |
| 1788023027 | 18.33° C | 45% | 1014.3 hPa | 1.78 mm | - | - | - |
| 1788022966 | 18.33° C | 45% | 1014.3 hPa | 1.78 mm | - | - | - |
| 1788022845 | 18.33° C | 44% | 1014.7 hPa | 2.03 mm | - | - | - |
| 1788022666 | 18.33° C | 44% | 1014.7 hPa | 2.03 mm | - | - | - |
* Rain latest hour (hover to see other rain measurements)
** Current wind speed in m/s (hover to see current wind gust speed)